Location: Normandy Village
(37.8755°N, 122.2655°W)
Time: 04:09:42
(UTC+00:00)

Cosmos 1782 Rocket - Pass Details

Date: 22 September 2019
Orbit: 607 x 632 km, 82.5° (Epoch: 18 October)

Event Time Altitude Azimuth Distance (km) Brightness Sun altitude
Rises 13:16:16 0° 341° (NNW) 2,887 6.9 -8.8°
Reaches altitude 10° 13:18:41 10° 331° (NNW) 1,982 5.9 -8.3°
Maximum altitude 13:22:32 31° 270° (W) 1,094 4.3 -7.6°
Drops below altitude 10° 13:26:23 10° 208° (SSW) 1,982 5.8 -6.8°
Sets 13:28:48 0° 198° (SSW) 2,888 6.8 -6.3°
